Temperature
7 7 7 7 7 7 8 8 8 8 8 8 8 8 8 8 8 8 8 8 8 7 7 7 7 7 7 7 7 7 7 7 7 7 7 7 7 7 6 6 6 6 5
7 7 7 7 7 7 7 7 7 7 7 7 7 7 7 7 7 7 7 7 7 7 7 6 6 6 6 7 7 7 7 7 7 7 7 7 6 6 6 5 5 5 5
6 6 6 6 6 6 6 6 7 7 7 7 7 7 7 7 7 7 7 7 6 6 6 6 6 6 6 6 6 6 6 6 6 6 6 6 6 5 5 5 5 4 4
6 6 6 6 6 6 6 6 6 6 6 6 6 6 6 6 6 6 6 6 6 5 6 6 5 5 5 5 5 5 6 6 6 6 5 5 5 5 4 4 4 4 3
5 5 5 5 5 5 5 5 6 6 6 6 6 6 6 5 5 5 5 5 5 5 5 5 5 5 5 5 5 5 5 5 5 5 5 5 5 4 4 4 3 3 3
4 5 5 5 5 5 5 5 5 5 5 5 5 5 5 5 5 4 4 4 4 4 4 5 5 5 4 4 4 4 4 4 4 4 4 4 4 4 4 3 3 2 2
4 4 4 4 5 5 5 5 4 4 4 4 4 4 4 4 4 4 4 4 4 4 4 4 4 4 4 4 4 4 4 4 4 4 4 4 4 4 3 3 3 2 2
4 4 4 4 4 4 4 4 4 4 4 4 4 4 4 4 4 3 3 3 3 3 3 3 3 3 3 3 3 3 3 3 3 3 3 3 3 3 3 3 3 2 1
4 4 4 4 4 3 3 3 3 3 3 3 3 3 3 3 3 3 3 3 3 3 3 3 3 3 3 3 3 3 3 3 3 3 3 3 3 3 3 2 2 1 1
3 3 3 3 3 3 3 3 3 3 3 3 3 3 3 2 2 2 2 3 3 3 3 3 3 3 2 2 2 2 2 2 2 2 2 2 2 2 2 2 2 1 1
3 3 3 3 3 3 3 3 2 2 2 2 3 2 2 2 2 2 2 2 2 2 2 2 2 2 2 2 2 2 2 2 2 2 2 2 2 1 1 1 1 1 1
3 3 3 2 2 2 2 2 2 2 2 2 2 2 2 2 2 2 2 2 2 2 2 2 2 1 1 2 2 1 1 1 1 1 1 1 1 1 0 0 0 -0 -0
2 2 2 2 2 2 2 2 2 2 2 1 1 1 1 1 1 1 1 1 1 1 1 1 1 1 1 1 1 1 1 1 1 1 1 0 0 -0 -0 -1 -1 -1 -1
2 2 2 2 2 1 1 1 1 1 1 1 1 1 1 1 1 1 1 1 1 1 1 1 1 0 0 0 0 0 0 -0 -0 -0 -0 -0 -1 -1 -1 -1 -1 -2 -2
2 2 1 1 1 1 1 1 1 1 0 0 0 0 0 0 0 -0 -0 -0 0 0 -0 -0 -0 -0 -0 -0 -0 -1 -1 -1 -1 -1 -1 -1 -1 -2 -2 -2 -2 -2 -2
1 1 1 1 1 1 1 1 0 0 0 -0 -0 -0 -0 -0 -0 -0 -0 -0 -0 -0 -1 -1 -1 -1 -1 -1 -1 -1 -1 -1 -1 -2 -2 -2 -2 -2 -2 -2 -2 -2 -2
1 1 1 0 0 0 -0 -0 -0 0 -0 -0 -0 -0 -1 -1 -1 -1 -1 -1 -1 -1 -1 -1 -1 -1 -1 -2 -2 -2 -2 -2 -2 -2 -2 -2 -3 -3 -3 -3 -3 -3 -3
1 0 0 -0 -0 -0 -1 -1 -1 -1 -1 -1 -1 -1 -1 -1 -1 -1 -1 -1 -1 -1 -1 -1 -2 -2 -2 -2 -2 -2 -2 -3 -3 -3 -3 -3 -3 -3 -3 -3 -3 -3 -3
0 0 -0 -0 -1 -1 -1 -1 -1 -1 -1 -1 -1 -1 -1 -1 -2 -2 -2 -2 -2 -2 -2 -2 -2 -2 -2 -2 -3 -3 -3 -3 -3 -3 -3 -4 -3 -3 -3 -3 -4 -4 -4
-0 -0 -1 -1 -1 -1 -1 -1 -2 -2 -2 -2 -2 -2 -2 -2 -2 -2 -2 -2 -2 -2 -2 -3 -3 -3 -3 -3 -3 -3 -3 -4 -4 -4 -4 -4 -4 -4 -4 -4 -4 -4 -4
-0 -1 -1 -1 -1 -1 -2 -2 -2 -2 -2 -2 -2 -3 -3 -3 -3 -3 -3 -3 -3 -3 -3 -3 -3 -3 -3 -3 -4 -4 -4 -4 -4 -4 -4 -4 -4 -4 -4 -4 -5 -5 -5
-1 -1 -1 -2 -2 -2 -2 -2 -2 -3 -3 -3 -3 -3 -3 -3 -3 -3 -3 -3 -4 -4 -4 -4 -4 -4 -4 -4 -4 -4 -4 -5 -4 -4 -5 -5 -5 -5 -5 -5 -5 -5 -5
-1 -2 -2 -2 -2 -3 -3 -3 -3 -3 -3 -3 -3 -4 -4 -4 -4 -4 -4 -4 -4 -4 -4 -4 -4 -4 -4 -4 -4 -5 -5 -5 -5 -5 -5 -5 -5 -5 -5 -5 -5 -5 -5
-2 -2 -2 -3 -3 -3 -3 -3 -3 -3 -4 -4 -4 -4 -4 -4 -4 -4 -4 -4 -4 -4 -4 -4 -5 -5 -5 -5 -5 -5 -5 -5 -5 -6 -6 -6 -6 -6 -6 -6 -6 -6 -6
-2 -3 -3 -3 -3 -4 -4 -4 -4 -4 -4 -4 -4 -4 -4 -5 -5 -5 -5 -5 -5 -5 -5 -5 -5 -5 -5 -5 -5 -5 -6 -6 -6 -6 -6 -6 -6 -6 -6 -6 -6 -6 -6
-3 -3 -3 -3 -4 -4 -4 -4 -4 -4 -5 -5 -5 -5 -5 -5 -5 -5 -5 -5 -5 -5 -5 -5 -5 -5 -5 -6 -6 -6 -6 -6 -6 -6 -6 -6 -6 -6 -6 -6 -6 -6 -6
Wind_Speed
3 2 2 2 2 2 2 2 2 2 2 3 3 3 3 4 4 4 4 4 6 6 5 6 7 6 5 5 5 6 5 5 6 4 2 2 3 4 4 5 6 5 5
4 4 4 4 4 3 3 3 2 3 3 3 3 3 3 4 4 4 5 5 5 6 6 6 7 5 6 5 5 6 6 5 5 5 2 2 2 4 4 4 4 5 4
5 5 5 5 5 4 4 4 3 3 3 3 2 2 3 4 4 4 5 5 5 6 6 6 6 5 6 4 5 5 4 3 2 3 2 1 1 3 4 3 4 3 3
5 5 5 4 4 4 4 4 4 3 3 2 2 2 2 3 4 4 4 4 4 5 5 6 6 6 6 5 5 4 3 3 2 3 2 2 2 3 4 4 3 2 2
4 4 4 4 5 5 5 4 5 4 4 3 3 3 2 2 3 3 3 3 4 4 5 5 5 5 6 5 4 4 3 3 3 3 3 3 3 4 4 3 3 3 1
3 3 4 5 5 5 5 5 5 5 4 4 4 3 3 3 5 5 4 3 3 4 5 5 4 4 4 5 5 4 4 4 4 4 4 5 5 4 4 5 4 3 2
4 4 4 5 5 5 5 5 5 5 5 5 4 4 4 5 6 6 6 4 4 4 5 5 4 4 3 3 3 2 3 4 5 5 5 6 6 7 8 6 5 3 2
4 5 5 5 5 5 5 5 5 5 5 4 5 5 5 6 8 8 7 3 4 4 5 5 4 4 3 3 2 2 2 1 2 3 4 4 5 7 7 7 6 5 4
5 5 5 5 5 5 5 5 5 4 5 5 4 5 5 7 9 8 7 3 3 5 4 4 4 4 4 2 2 2 1 1 2 4 5 5 8 10 10 8 7 5 2
4 4 4 4 4 5 5 4 4 4 4 5 5 5 5 5 9 9 8 3 3 4 3 3 3 3 3 2 3 3 3 1 2 4 5 6 6 8 8 6 7 6 3
4 4 4 4 4 4 4 4 4 4 5 5 5 5 5 6 8 9 8 3 3 3 2 3 3 3 2 2 2 3 4 4 4 5 5 5 5 4 4 4 3 4 4
3 3 4 4 4 4 4 5 4 4 5 5 5 6 5 5 7 7 8 6 5 2 2 2 2 2 2 1 0 2 5 5 4 4 4 4 3 3 3 4 5 5 4
2 3 3 4 4 4 4 4 4 4 4 4 4 5 6 5 6 8 8 7 6 3 1 2 1 1 2 2 3 5 4 3 4 4 4 3 2 4 4 4 5 7 7
1 2 3 3 4 4 3 3 3 4 4 4 4 5 6 5 5 5 4 4 5 3 2 2 3 4 4 3 4 3 3 3 3 3 3 3 3 3 3 3 3 4 3
1 2 3 3 3 3 3 3 3 3 4 4 4 4 5 5 7 9 6 4 3 1 1 2 2 2 2 2 2 2 2 3 3 3 4 4 3 3 3 3 3 3 3
1 1 2 2 3 3 3 4 5 4 7 7 6 6 5 7 9 8 7 6 4 1 2 1 1 1 1 1 1 1 2 2 2 3 3 4 4 4 3 3 3 3 4
1 2 2 2 2 3 3 3 5 6 6 6 7 8 8 9 8 7 6 4 3 2 1 0 0 0 0 1 1 1 1 1 2 3 3 3 3 4 4 4 4 3 3
1 2 2 2 2 2 3 3 3 4 5 5 6 8 8 8 8 7 6 3 2 2 1 1 1 0 1 1 1 1 1 2 2 2 3 3 3 4 4 4 4 4 4
2 2 2 2 2 2 2 2 3 3 4 4 4 6 8 7 6 6 5 2 2 2 1 1 1 1 0 1 1 1 2 2 2 2 2 3 3 3 4 4 4 6 4
2 3 2 2 2 2 2 2 3 3 3 4 4 4 4 4 3 3 3 3 2 2 2 1 1 1 1 1 2 2 2 2 2 2 2 3 3 3 4 4 4 4 4
2 2 2 2 2 2 2 2 3 3 3 4 4 5 5 3 3 3 2 2 2 2 2 2 1 1 1 1 1 2 3 2 2 3 3 3 3 2 3 3 4 4 4
2 2 2 2 2 2 2 2 2 3 3 4 4 5 6 3 2 2 3 2 2 2 2 2 1 1 1 1 1 2 2 2 2 3 3 3 3 3 3 3 4 4 4
3 2 2 2 2 3 3 2 3 3 3 4 4 4 3 3 3 3 3 2 2 2 2 1 1 1 1 1 1 2 2 3 3 3 3 3 3 3 3 3 4 5 5
3 3 3 3 3 2 3 3 3 3 3 4 3 3 3 3 3 3 3 2 2 2 2 2 1 2 1 1 1 2 3 3 4 4 4 4 4 3 3 3 4 5 5
3 3 3 3 3 3 3 3 3 3 3 4 4 3 3 3 3 3 3 2 2 2 2 2 2 2 2 2 2 2 3 4 4 4 4 4 4 4 4 4 4 4 4
4 4 4 3 3 3 3 3 3 4 4 4 4 3 3 3 3 3 2 2 2 2 2 2 2 3 3 3 3 3 4 4 5 5 4 4 4 4 4 4 5 5 5
Wind_Direction
29 26 23 8 2 359 358 340 323 311 299 283 268 263 265 257 242 235 241 248 244 244 245 243 249 250 249 251 246 240 236 235 251 261 242 212 187 180 172 160 158 156 163
26 29 29 23 19 14 358 338 318 299 284 270 267 266 277 275 259 244 245 248 249 247 245 248 256 254 249 246 242 247 244 236 238 246 242 193 182 177 159 151 144 141 153
19 25 24 17 12 4 350 341 328 304 290 276 270 270 272 273 268 260 258 255 254 251 247 247 253 253 257 257 251 246 248 249 241 226 226 175 159 154 142 129 118 116 128
17 20 19 7 360 354 346 343 338 333 328 313 301 289 283 283 274 270 266 265 267 268 260 251 250 247 247 247 247 243 238 233 211 194 188 165 146 143 149 149 136 121 115
13 10 1 354 357 358 354 355 352 354 354 353 344 329 318 304 291 288 277 272 273 280 275 261 257 258 258 255 252 242 229 228 208 188 179 166 161 162 171 157 155 127 99
14 4 360 4 4 360 360 4 3 360 358 2 357 344 334 322 325 323 318 291 282 280 281 279 272 253 255 268 268 255 238 232 221 200 191 184 180 169 154 152 144 140 177
14 8 4 4 5 357 360 7 4 357 358 357 352 348 339 329 335 331 330 316 293 278 274 273 276 272 268 247 257 259 255 252 228 207 195 188 177 174 162 156 155 151 158
13 10 6 5 1 356 4 5 356 353 351 345 343 342 340 337 344 342 334 315 294 282 273 264 258 262 257 249 232 234 261 273 220 197 189 183 171 164 162 153 142 118 89
8 3 357 355 355 356 358 353 349 351 348 342 336 340 338 331 338 340 341 305 292 289 280 268 256 254 260 252 204 208 229 332 59 110 120 130 141 146 144 132 136 138 134
348 345 347 351 353 350 346 345 344 345 340 339 343 340 331 324 335 342 344 319 309 306 302 292 277 267 266 237 202 193 198 207 130 107 101 107 117 134 144 150 153 152 139
337 344 350 352 352 349 350 348 346 349 349 348 344 336 332 330 333 339 344 339 311 306 312 311 304 305 293 252 223 199 187 157 137 124 114 108 103 103 97 93 114 144 145
351 352 352 350 354 358 358 352 351 355 354 349 343 337 335 332 335 337 344 344 333 299 287 285 301 335 8 28 83 129 126 126 123 121 119 119 119 116 103 92 88 81 81
360 349 344 350 356 354 355 354 353 355 353 345 343 336 331 331 333 340 342 344 343 338 316 306 320 65 72 69 87 106 112 119 125 129 131 126 121 122 116 103 87 84 74
348 340 341 351 352 349 347 347 350 347 343 339 336 331 326 329 333 336 339 345 355 0 12 32 55 67 72 81 90 90 90 116 126 129 124 115 116 125 126 122 120 111 96
327 336 338 339 340 336 330 322 327 317 321 323 317 316 322 326 329 331 334 333 338 338 63 59 57 62 64 59 67 83 91 103 111 119 124 129 134 135 134 126 126 120 123
316 326 327 330 330 328 323 325 324 324 328 333 338 335 317 320 326 334 333 333 343 38 88 85 70 78 98 105 102 81 92 111 124 131 139 146 150 153 147 137 130 136 140
265 292 306 318 322 321 321 324 327 330 329 333 339 340 338 337 339 342 341 342 359 39 70 100 164 172 166 135 131 124 118 123 130 137 142 148 151 153 152 150 147 141 141
255 273 287 289 297 304 308 311 316 323 327 326 328 333 340 343 344 349 353 7 8 13 9 323 279 234 179 164 161 148 138 134 135 138 140 148 153 157 160 163 163 158 153
234 258 271 277 282 290 301 308 309 311 311 316 325 332 337 338 344 357 9 14 356 343 336 328 305 262 211 170 160 160 157 155 153 154 157 158 162 164 167 167 164 165 159
240 260 272 277 284 294 300 306 306 306 307 311 316 319 330 338 343 346 356 353 346 334 323 314 307 260 209 181 166 166 162 160 161 167 169 167 167 167 167 166 167 166 167
229 250 266 279 275 279 288 292 295 297 299 304 304 310 323 317 312 317 326 328 323 317 317 314 311 279 233 188 169 172 176 178 175 170 170 170 166 164 165 167 170 167 159
209 227 240 252 265 274 283 285 287 290 295 298 304 311 316 312 306 307 309 311 312 307 307 304 297 289 236 205 189 184 184 184 181 170 168 168 166 166 165 170 170 166 162
205 221 240 253 257 273 282 283 283 284 288 292 297 303 309 304 299 298 300 305 311 315 310 306 300 303 299 256 221 191 194 198 191 181 176 175 173 172 172 177 176 171 171
205 216 229 243 246 253 267 274 278 284 286 288 290 290 292 291 291 294 298 302 305 308 303 293 282 281 284 275 255 236 227 216 198 190 182 182 181 177 176 178 181 179 177
206 218 226 234 241 250 260 267 271 277 281 283 283 284 285 286 289 293 295 295 297 302 305 302 298 291 286 289 280 260 239 220 208 197 188 184 184 182 180 181 185 181 178
209 218 227 231 235 241 248 256 261 265 268 272 273 273 274 274 278 283 287 289 294 297 298 299 307 309 306 293 279 259 244 231 217 205 189 179 181 187 185 186 186 184 177
Height
1452 1453 1453 1454 1454 1454 1454 1453 1454 1454 1455 1455 1455 1456 1456 1456 1456 1456 1457 1457 1457 1457 1458 1459 1459 1459 1459 1458 1458 1458 1458 1458 1457 1456 1458 1458 1459 1460 1462 1462 1464 1465 1467
1452 1452 1452 1451 1451 1451 1450 1450 1450 1450 1450 1450 1451 1451 1451 1451 1451 1451 1452 1452 1452 1452 1452 1452 1452 1452 1452 1451 1451 1451 1451 1451 1451 1450 1451 1452 1453 1455 1457 1458 1459 1460 1462
1452 1451 1451 1450 1449 1449 1448 1448 1447 1447 1446 1446 1446 1446 1446 1447 1447 1447 1447 1447 1447 1447 1447 1446 1446 1446 1445 1445 1444 1444 1444 1445 1445 1445 1445 1446 1448 1450 1452 1453 1454 1457 1458
1452 1451 1450 1449 1448 1447 1446 1445 1444 1443 1442 1441 1441 1442 1442 1443 1442 1442 1442 1442 1442 1442 1442 1441 1441 1441 1440 1439 1439 1438 1438 1439 1439 1439 1440 1441 1443 1444 1447 1449 1451 1453 1455
1452 1451 1449 1448 1447 1445 1444 1443 1442 1441 1439 1438 1438 1438 1439 1439 1439 1438 1438 1438 1438 1437 1437 1436 1436 1436 1435 1435 1434 1433 1433 1434 1434 1434 1435 1436 1437 1440 1442 1445 1447 1450 1452
1451 1450 1448 1447 1445 1444 1442 1441 1440 1438 1437 1437 1436 1436 1435 1435 1435 1435 1434 1433 1433 1433 1432 1432 1431 1431 1430 1430 1429 1429 1429 1429 1428 1429 1430 1431 1433 1435 1438 1441 1444 1446 1449
1450 1449 1447 1446 1444 1443 1441 1440 1438 1437 1436 1435 1434 1434 1433 1432 1431 1431 1430 1429 1428 1428 1428 1427 1426 1426 1426 1425 1425 1424 1424 1424 1425 1426 1426 1427 1429 1432 1434 1437 1440 1443 1445
1450 1448 1446 1445 1444 1442 1441 1439 1438 1436 1435 1433 1432 1431 1430 1429 1428 1428 1427 1426 1425 1424 1423 1423 1422 1421 1420 1420 1420 1420 1420 1420 1420 1422 1423 1424 1427 1429 1431 1434 1437 1440 1443
1449 1447 1446 1445 1443 1441 1440 1438 1437 1435 1434 1432 1430 1429 1428 1427 1426 1425 1423 1422 1421 1420 1420 1419 1418 1417 1417 1417 1417 1416 1416 1417 1418 1419 1420 1422 1424 1426 1429 1431 1433 1436 1439
1448 1447 1446 1444 1443 1441 1439 1437 1436 1434 1433 1431 1429 1427 1426 1424 1423 1422 1421 1419 1418 1417 1416 1415 1415 1414 1413 1413 1413 1413 1413 1414 1415 1416 1418 1420 1421 1423 1426 1428 1430 1433 1435
1448 1447 1445 1443 1442 1440 1438 1437 1435 1433 1431 1430 1428 1426 1424 1422 1420 1419 1418 1417 1416 1414 1412 1411 1411 1410 1410 1409 1410 1410 1410 1411 1412 1414 1415 1417 1418 1421 1423 1425 1428 1431 1433
1446 1445 1444 1442 1441 1439 1438 1436 1434 1432 1430 1428 1426 1424 1423 1421 1419 1417 1416 1414 1413 1411 1409 1408 1408 1407 1407 1407 1407 1407 1408 1409 1410 1411 1413 1414 1416 1418 1420 1423 1425 1428 1431
1445 1444 1442 1441 1439 1438 1436 1435 1433 1431 1429 1427 1425 1423 1421 1419 1417 1415 1413 1412 1410 1409 1407 1406 1406 1405 1405 1405 1405 1405 1406 1407 1407 1409 1410 1412 1415 1416 1418 1420 1423 1426 1428
1443 1442 1441 1439 1438 1437 1435 1434 1432 1430 1428 1426 1424 1421 1419 1417 1415 1413 1412 1410 1408 1407 1406 1405 1404 1403 1403 1404 1404 1404 1405 1405 1406 1407 1409 1411 1413 1415 1416 1418 1421 1423 1426
1441 1440 1439 1438 1437 1435 1434 1433 1431 1429 1427 1425 1423 1421 1418 1416 1414 1412 1411 1408 1407 1406 1404 1403 1403 1402 1402 1402 1402 1403 1403 1404 1405 1406 1408 1410 1412 1413 1415 1417 1419 1422 1425
1438 1438 1437 1436 1435 1433 1432 1431 1429 1428 1426 1424 1422 1420 1417 1415 1413 1411 1409 1407 1406 1405 1403 1402 1402 1401 1401 1401 1401 1401 1402 1403 1404 1405 1406 1408 1410 1412 1414 1415 1418 1421 1423
1436 1435 1434 1433 1432 1431 1430 1428 1427 1426 1424 1422 1420 1418 1416 1413 1411 1409 1408 1406 1405 1404 1403 1402 1401 1401 1400 1400 1400 1401 1401 1402 1403 1404 1405 1407 1409 1410 1412 1414 1416 1419 1421
1433 1432 1432 1431 1430 1429 1428 1426 1424 1423 1421 1419 1417 1416 1414 1412 1410 1408 1407 1405 1404 1403 1402 1401 1401 1400 1400 1399 1399 1400 1400 1401 1402 1403 1404 1405 1407 1409 1411 1413 1415 1417 1419
1430 1429 1428 1428 1427 1426 1425 1423 1422 1420 1419 1417 1415 1413 1412 1410 1408 1407 1405 1404 1403 1402 1401 1400 1400 1399 1398 1398 1398 1398 1399 1399 1400 1401 1402 1404 1406 1407 1409 1411 1413 1415 1417
1426 1426 1425 1424 1423 1422 1421 1420 1419 1418 1416 1414 1413 1411 1409 1408 1406 1405 1404 1402 1401 1400 1400 1399 1398 1398 1397 1396 1396 1396 1396 1397 1398 1399 1401 1402 1404 1405 1407 1409 1411 1413 1415
1422 1422 1421 1421 1420 1419 1418 1417 1416 1415 1413 1412 1410 1409 1408 1406 1404 1403 1402 1401 1400 1399 1398 1397 1397 1396 1395 1395 1394 1394 1395 1395 1396 1397 1399 1400 1401 1403 1405 1407 1409 1411 1413
1418 1417 1417 1416 1416 1415 1414 1413 1413 1411 1410 1409 1408 1406 1405 1403 1402 1401 1400 1399 1398 1397 1396 1395 1394 1394 1393 1393 1393 1392 1393 1393 1394 1395 1396 1398 1399 1401 1402 1404 1406 1408 1410
1413 1413 1413 1412 1412 1411 1410 1410 1409 1408 1406 1405 1404 1403 1401 1400 1399 1398 1397 1396 1395 1394 1394 1393 1392 1392 1391 1391 1391 1391 1391 1391 1392 1393 1394 1395 1397 1398 1400 1402 1403 1405 1407
1409 1408 1408 1408 1407 1407 1406 1405 1404 1404 1403 1402 1401 1399 1398 1397 1396 1395 1394 1393 1393 1392 1391 1390 1390 1389 1389 1389 1389 1389 1389 1389 1390 1391 1392 1393 1394 1396 1397 1399 1400 1402 1404
1404 1404 1404 1403 1403 1402 1402 1401 1400 1399 1399 1398 1397 1396 1395 1394 1393 1392 1391 1390 1390 1389 1389 1388 1387 1387 1386 1386 1386 1386 1386 1387 1387 1388 1389 1390 1392 1393 1394 1396 1398 1399 1401
1399 1399 1399 1399 1398 1398 1397 1397 1396 1395 1394 1394 1393 1392 1391 1390 1389 1389 1388 1387 1386 1386 1385 1385 1384 1384 1384 1383 1383 1384 1384 1384 1385 1386 1387 1388 1389 1390 1391 1393 1394 1396 1398